Weather in Charleville-Mézières

France     49°45′20″N   4°42′26″E
temp.,
°C
wind,
m/s
gust,
m/s
humid.,
%
clouds,
%
prec.,
mm/h
press.,
hPa
HPBL,
m
16 october, sat
sat1623:00+7nne22915 0.0 102218
02:00+5ne22914 0.0 102212
05:00+5ne22910 0.0 102213
08:00+4ne22900 0.0 102211
11:00+9ene22730 0.0 1022290
14:00+13s11590 0.0 10211115
17:00+13ssw116039 0.0 1020734
20:00+7nne118237 0.0 102110
17 october, sun
sun1723:00+5nne229089 0.0 102213
02:00+5ne119030 0.0 102110
05:00+4ene119084 0.0 102110
08:00+4e119161 0.0 102110
11:00+8ese1278100 0.0 1021203
14:00+12sse2265100 0.0 1020617
17:00+12se2269100 0.0 1020494
20:00+8e2284100 0.0 102110
18 october, mon
mon1823:00+7e118898 0.0 102210
02:00+6se22905 0.0 102110
05:00+5e11904 0.0 102210
08:00+5e119189 0.0 102310
11:00+10se2476100 0.0 1023212
14:00+13sse3571100 0.0 1022458
17:00+13se2381100 0.0 102196
20:00+10se2289100 0.0 102214
19 october, tue
tue1923:00+9ese2290100 0.0 102213
02:00+10ese2287100 0.0 102243
05:00+10se2486100 0.0 1021119
08:00+11se31080100 0.0 1020299
11:00+11sse41197100 2.1 1020421
14:00+13s41099100 2.2 1019438
17:00+16ssw489076 0.0 1018522
20:00+12se24976 0.0 101893
20 october, wed
wed2023:00+11se259790 0.0 1016103
02:00+13sse41383100 0.0 1014368
05:00+12sse3992100 0.0 1012218
08:00+13ssw61389100 0.3 1010529
11:00+13ssw71596100 3.9 1009821
14:00+15ssw91792100 6.8 10071275
17:00+15sw101886100 2.1 10041528
20:00+11sw614894 3.1 1005646